This is the latest recevied weather packets stored in our database for station/object 9W2GDL-10. If no packets are shown the sender has not sent any weather packets the latest 10 day(s).
| Time | Temp. | Humidity | Pressure | Rain* | Wind** | Luminosity | Snow |
|---|---|---|---|---|---|---|---|
| 1787790841 | 32.22° C | 63% | 1012.3 hPa | - | - | - | - |
| 1787790240 | 32.22° C | 63% | 1012.2 hPa | - | - | - | - |
| 1787789639 | 32.22° C | 62% | 1012.2 hPa | - | - | - | - |
| 1787789038 | 32.22° C | 62% | 1012 hPa | - | - | - | - |
| 1787788437 | 31.67° C | 63% | 1012.1 hPa | - | - | - | - |
| 1787787837 | 31.67° C | 64% | 1011.9 hPa | - | - | - | - |
| 1787787236 | 31.67° C | 63% | 1011.8 hPa | - | - | - | - |
| 1787786635 | 31.67° C | 64% | 1011.8 hPa | - | - | - | - |
| 1787786034 | 31.11° C | 65% | 1011.7 hPa | - | - | - | - |
| 1787785433 | 30° C | 69% | 1011.5 hPa | - | - | - | - |
| 1787784833 | 30° C | 69% | 1011.4 hPa | - | - | - | - |
| 1787784232 | 30° C | 69% | 1011.4 hPa | - | - | - | - |
| 1787783631 | 30° C | 69% | 1011.5 hPa | - | - | - | - |
| 1787783030 | 30° C | 69% | 1011.5 hPa | - | - | - | - |
| 1787782430 | 30° C | 69% | 1011.4 hPa | - | - | - | - |
| 1787781829 | 30° C | 69% | 1011.3 hPa | - | - | - | - |
| 1787781228 | 30° C | 68% | 1011.2 hPa | - | - | - | - |
| 1787780626 | 30.56° C | 67% | 1011.4 hPa | - | - | - | - |
| 1787780026 | 31.67° C | 64% | 1011.4 hPa | - | - | - | - |
| 1787779425 | 31.67° C | 64% | 1011.2 hPa | - | - | - | - |
| 1787778824 | 31.67° C | 64% | 1011.2 hPa | - | - | - | - |
| 1787778223 | 31.67° C | 65% | 1011.1 hPa | - | - | - | - |
| 1787777625 | 31.67° C | 64% | 1011.1 hPa | - | - | - | - |
| 1787777022 | 31.67° C | 65% | 1011 hPa | - | - | - | - |
| 1787776421 | 31.67° C | 64% | 1011.1 hPa | - | - | - | - |
* Rain since midnight (hover to see other rain measurements)
** Current wind speed in m/s (hover to see current wind gust speed)